Wind_Speed
2 3 3 2 4 9 8 6 7 19 19 21 15 13 22 22 24 24 25 27 26 25 25 25 23 20 19 19 19 20 21 21 21 21 22 22 22 22 21 21 21 22 21 21 21 21 21 21 21
4 3 4 4 8 15 10 4 22 25 23 16 15 20 25 21 21 22 23 24 24 24 25 23 19 17 17 19 20 21 22 21 21 22 24 24 24 24 24 24 23 23 23 23 23 24 24 24 25
7 5 6 7 13 13 1 15 25 20 16 11 21 26 21 19 19 19 20 21 20 20 20 19 17 16 17 18 19 20 21 21 22 24 26 27 26 25 25 25 26 26 26 26 26 28 29 28 29
8 9 10 11 11 1 9 16 22 18 16 16 21 25 16 15 16 16 16 14 13 13 13 14 15 15 14 14 15 16 18 20 23 25 27 28 29 28 27 28 29 30 31 31 31 32 34 34 35
10 11 15 17 4 10 16 18 16 11 15 16 17 18 16 15 14 13 12 11 11 11 11 12 12 12 11 12 14 15 17 20 24 26 28 29 30 30 30 31 32 33 34 32 31 31 34 34 35
11 12 21 10 8 8 7 8 5 9 13 13 15 17 16 16 13 12 11 11 12 13 13 12 11 11 11 13 15 17 18 21 23 25 28 29 32 32 31 32 32 32 32 31 30 28 29 29 27
4 8 16 3 10 5 4 5 5 6 9 9 12 21 16 15 13 12 13 12 11 12 13 12 12 12 14 16 18 20 21 22 24 25 27 27 27 27 28 29 30 31 32 32 31 29 30 29 30
5 11 15 1 6 6 6 4 7 9 12 13 15 20 18 17 16 15 15 17 16 14 12 13 14 14 16 18 20 22 25 26 27 27 28 29 30 29 28 29 30 31 31 31 30 30 30 31 32
9 15 12 3 6 8 7 5 8 10 11 15 20 22 19 18 16 17 17 17 18 17 16 18 16 14 16 18 20 22 25 27 28 28 29 29 30 29 29 28 28 28 28 29 30 30 30 31 31
9 12 3 12 8 5 8 7 10 12 10 12 18 22 21 19 17 19 20 19 17 19 21 20 20 20 19 21 22 24 26 28 30 30 30 30 30 29 28 26 26 26 27 29 30 32 33 33 33
8 4 11 17 16 10 7 8 11 10 11 10 17 22 22 23 18 21 21 20 18 20 23 22 21 22 22 24 25 27 28 31 33 33 33 31 31 30 29 28 28 28 30 31 33 34 35 36 37
9 10 14 14 15 12 8 10 12 10 13 15 16 24 29 28 27 25 24 24 23 24 25 24 23 25 27 28 28 30 31 32 34 35 35 34 34 33 33 33 33 33 32 32 33 34 35 37 39
14 12 13 15 14 13 11 11 14 12 12 17 20 26 36 31 27 26 25 24 25 26 27 26 26 28 30 31 31 32 34 35 35 36 36 36 36 36 35 36 36 36 35 35 36 38 39 41 43
17 12 16 18 15 13 14 13 14 14 16 15 21 25 30 27 24 25 25 26 28 27 28 27 27 28 29 30 30 31 34 36 38 39 39 38 38 38 37 36 36 38 40 41 42 44 46 48 48
20 19 20 19 16 15 15 14 12 16 20 17 21 22 27 27 25 27 30 31 32 31 30 30 28 27 29 31 32 32 34 35 37 38 38 39 40 40 38 37 38 39 42 44 47 50 53 54 54
21 20 19 15 14 16 17 14 9 13 18 17 19 17 25 29 26 30 33 31 33 35 34 32 26 25 29 33 35 36 36 37 38 36 36 39 42 43 42 40 41 43 46 49 51 53 55 56 55
20 18 15 12 13 16 20 16 12 20 21 20 18 16 24 29 26 31 33 30 29 34 36 29 20 27 31 34 35 34 34 36 37 36 37 42 46 47 44 43 45 48 51 52 54 55 57 57 57
17 12 13 17 11 20 25 23 18 24 22 21 17 17 25 29 28 30 33 33 33 38 38 34 41 42 40 40 39 37 36 37 37 38 43 46 45 45 45 46 48 52 53 53 55 57 58 60 62
18 16 16 14 17 23 27 22 23 26 22 20 18 22 28 31 30 32 34 37 40 43 46 49 51 49 48 46 44 42 42 43 44 45 49 49 46 45 47 48 51 55 56 57 59 61 63 65 67
21 22 22 22 21 26 28 23 28 27 26 25 24 26 28 32 34 33 35 37 41 44 48 51 52 52 52 50 48 47 48 48 50 51 51 49 47 48 53 55 57 58 59 61 64 66 68 69 70
26 25 23 21 19 26 28 25 29 28 26 24 25 28 30 33 35 34 34 37 40 43 47 50 52 53 52 52 51 51 52 53 54 53 53 50 49 58 61 59 60 62 63 66 69 72 74 74 75
28 23 22 22 23 23 26 23 28 31 29 26 26 29 32 31 32 34 36 38 41 43 45 47 48 50 51 51 52 53 54 55 56 56 57 58 64 67 67 69 71 73 74 75 77 79 80 81 82
26 22 20 21 25 27 25 24 28 35 34 30 28 29 30 30 32 35 37 40 41 42 43 44 46 47 48 48 49 50 52 53 55 56 58 62 66 70 73 76 79 81 83 85 86 86 86 86 85
24 23 24 26 26 27 24 24 30 38 38 33 29 28 32 36 38 38 37 38 39 40 41 42 43 43 43 44 46 48 50 52 55 58 61 65 68 72 76 80 83 86 88 90 90 89 86 83 79
24 25 26 26 26 26 23 25 31 41 41 35 32 35 40 42 42 40 37 36 37 37 37 38 39 40 42 45 46 48 51 54 57 61 64 68 72 76 79 82 83 84 85 85 82 77 72 66 59
28 27 27 24 21 19 19 27 37 39 39 37 35 38 41 41 40 38 36 36 36 36 36 37 40 42 45 47 49 51 53 56 60 65 70 74 77 78 78 77 74 72 68 65 59 53 48 45 43
25 25 22 24 25 25 25 29 32 33 33 34 36 40 39 36 37 37 38 38 38 39 39 41 43 46 48 51 52 54 57 61 66 70 74 75 74 70 66 60 56 52 49 46 42 39 38 38 38
24 24 23 26 28 29 28 28 34 35 36 37 39 39 37 37 40 42 42 41 41 41 42 44 46 48 51 52 54 57 62 66 67 66 64 61 55 50 46 44 43 42 41 39 37 36 36 37 37
28 28 29 29 29 31 31 32 40 38 36 37 39 38 38 40 43 45 45 44 43 43 44 46 49 51 52 54 57 61 64 62 58 53 49 44 40 37 36 36 36 35 34 35 35 34 34 33 33
32 31 28 32 34 33 30 34 38 37 39 40 39 38 40 44 47 48 47 46 45 45 47 49 51 52 54 56 59 62 59 52 45 43 41 38 37 35 35 34 34 34 33 32 31 30 29 28 28
Wind_Direction
181 203 201 173 90 65 68 81 244 246 251 247 242 254 265 272 281 287 290 293 291 287 285 285 282 280 283 278 264 254 249 250 255 261 265 265 262 257 256 254 252 252 252 252 253 256 257 256 256
136 170 181 134 93 58 24 224 237 248 262 265 260 276 283 289 289 293 293 291 287 282 280 280 274 274 281 280 269 258 254 255 259 264 266 263 260 257 255 253 251 252 252 253 255 257 255 254 255
125 126 128 132 92 56 90 242 251 261 266 279 286 290 293 293 295 296 293 291 287 281 276 273 268 271 279 281 274 264 262 261 263 266 268 264 259 257 257 256 255 255 254 255 257 261 260 257 254
117 113 108 90 65 269 186 227 253 268 266 276 287 291 304 304 301 300 299 293 287 282 276 273 273 277 279 285 285 276 268 264 263 263 264 263 259 258 260 261 261 261 259 259 260 262 263 260 256
118 122 84 56 23 244 226 231 265 267 278 296 294 299 316 312 302 304 308 304 297 291 284 278 281 284 282 284 287 283 277 269 267 266 266 265 261 258 258 261 264 266 266 266 267 268 267 266 261
135 119 66 37 264 264 236 235 251 278 296 316 312 311 317 315 306 302 307 310 305 300 291 280 281 283 283 282 287 288 285 282 279 276 272 271 266 262 262 266 271 275 278 279 280 282 281 282 282
186 102 72 66 259 268 229 211 207 266 283 291 305 304 317 322 319 317 316 314 308 304 304 295 289 285 284 283 286 288 291 292 291 290 292 290 287 282 282 285 286 286 287 291 294 292 293 295 292
99 103 99 210 255 248 260 225 216 235 260 278 282 286 305 314 317 319 317 313 310 311 310 295 298 298 294 292 291 292 294 294 294 294 294 296 295 295 295 296 297 294 292 293 295 295 295 293 290
106 98 101 197 239 232 266 269 265 267 274 288 295 302 308 306 307 307 307 306 303 301 291 294 293 292 292 294 295 296 296 296 296 296 295 294 294 294 293 294 294 294 294 294 294 294 292 290 289
131 81 97 199 208 234 262 256 269 295 285 295 292 300 301 298 301 303 304 302 294 296 297 299 296 293 293 294 295 295 296 296 297 298 298 298 298 298 296 294 292 292 292 292 292 293 292 291 290
181 144 220 220 226 212 242 254 266 284 273 262 272 287 292 298 306 303 299 293 287 292 296 295 294 293 292 291 292 293 294 296 298 300 301 302 301 299 297 294 293 292 292 293 294 294 292 291 291
231 223 225 217 230 212 214 257 262 261 269 272 273 285 288 293 299 299 295 289 285 290 291 292 294 293 292 291 291 291 292 292 294 294 295 296 296 297 298 298 298 297 297 296 293 291 290 289 289
258 242 250 240 239 234 223 234 257 254 260 277 278 285 291 296 293 287 291 291 291 291 289 290 291 290 291 292 292 292 293 292 292 291 290 291 291 293 296 299 300 299 297 295 293 292 289 288 288
250 248 254 258 254 253 254 237 245 262 249 262 277 283 289 295 292 287 292 301 300 294 291 292 294 297 300 302 300 298 297 295 293 290 289 290 291 292 294 295 296 295 295 294 293 292 291 291 291
243 244 248 257 263 262 268 269 245 253 270 258 267 282 287 292 294 293 300 303 300 296 294 293 294 300 306 308 307 305 303 304 301 293 290 291 292 291 289 289 289 290 291 292 294 295 295 295 295
254 256 258 265 270 273 270 269 256 250 271 272 276 278 279 292 298 295 298 295 293 296 295 284 283 300 308 309 309 308 308 309 305 298 293 292 291 288 286 286 288 291 294 294 294 294 294 293 293
262 261 270 275 266 263 268 274 251 247 242 251 263 269 274 283 287 289 298 293 291 292 288 271 281 312 314 312 309 309 306 309 306 298 295 293 288 283 281 283 287 291 294 294 293 294 294 294 293
257 265 284 291 267 248 250 261 259 262 262 262 260 250 260 272 279 288 295 291 296 300 296 294 309 319 319 315 311 309 305 305 304 298 298 295 290 281 276 279 284 289 292 292 292 292 292 291 291
241 225 236 250 248 245 254 259 252 263 268 264 253 250 259 270 276 284 288 293 299 302 302 304 310 314 313 311 309 307 305 303 301 298 298 294 287 282 283 286 291 293 292 291 290 290 290 290 291
247 240 236 225 234 248 253 256 255 263 269 266 257 258 262 269 276 281 285 291 295 297 299 302 305 305 306 306 306 306 305 303 302 300 300 295 290 291 295 294 293 291 290 289 290 290 289 289 289
244 245 242 237 244 259 265 258 262 270 272 272 270 272 273 274 280 283 284 284 286 289 292 296 298 300 302 303 304 304 302 301 301 302 301 297 292 297 299 296 294 292 292 292 292 291 291 291 290
250 252 249 242 234 244 264 266 267 270 273 274 274 279 283 286 287 284 281 281 283 287 290 293 295 298 300 301 300 300 300 300 301 300 299 296 296 298 298 298 298 298 298 297 296 295 295 294 294
251 247 243 252 248 238 242 254 257 263 270 273 273 277 284 291 291 287 285 285 287 290 292 294 295 296 297 298 299 300 300 299 299 298 297 297 297 298 298 298 298 298 298 297 295 294 293 293 293
249 245 242 240 245 248 243 237 252 263 270 273 273 278 287 293 294 291 289 289 292 294 295 296 297 298 299 300 300 299 299 298 297 296 296 296 296 296 296 296 296 296 296 295 293 292 292 292 292
244 239 243 247 246 250 254 243 250 257 265 270 273 283 292 293 293 292 292 294 297 298 297 297 299 300 301 300 300 299 298 298 297 297 297 296 295 294 294 294 295 295 295 294 293 293 292 292 292
247 245 239 240 251 262 252 243 240 244 253 261 269 280 288 290 291 293 297 301 303 303 301 301 302 302 302 301 300 300 300 300 301 301 300 299 297 296 295 295 296 296 297 298 297 296 295 293 292
237 249 249 240 239 241 256 265 258 255 257 262 265 276 281 287 292 297 301 306 307 306 304 304 305 304 304 303 303 304 305 305 306 306 304 302 300 298 297 297 298 300 302 303 302 300 298 296 294
244 233 242 246 244 243 245 261 268 262 260 264 266 267 271 284 293 298 301 307 310 308 306 305 304 304 305 305 306 307 309 310 310 310 310 308 306 304 302 300 300 301 302 303 303 302 300 298 296
251 248 234 237 243 246 252 252 256 262 264 264 263 265 274 286 294 297 301 306 309 309 307 305 305 306 307 308 309 311 312 312 313 314 316 317 317 314 311 308 306 306 305 304 303 304 303 303 302
250 253 251 241 239 240 244 255 259 261 264 268 268 271 279 286 292 297 302 307 309 309 307 307 307 308 309 310 312 313 314 314 315 317 319 322 323 322 318 314 311 309 306 303 302 302 302 304 306
Height
5889 5890 5892 5895 5898 5900 5902 5906 5908 5898 5898 5901 5899 5900 5899 5902 5902 5901 5897 5893 5893 5893 5892 5891 5890 5890 5890 5890 5890 5890 5890 5891 5892 5893 5894 5894 5894 5894 5894 5894 5893 5893 5893 5893 5893 5893 5893 5893 5893
5889 5891 5892 5895 5898 5898 5906 5908 5901 5899 5899 5897 5897 5898 5896 5899 5897 5896 5892 5890 5889 5889 5887 5887 5887 5887 5887 5887 5887 5887 5888 5888 5889 5890 5890 5890 5890 5890 5890 5890 5889 5889 5890 5890 5890 5889 5889 5889 5889
5889 5890 5892 5896 5897 5901 5910 5905 5898 5898 5896 5896 5894 5893 5895 5894 5893 5891 5889 5887 5886 5885 5883 5883 5884 5884 5884 5884 5884 5885 5885 5886 5886 5887 5887 5887 5887 5886 5886 5886 5886 5886 5886 5886 5885 5885 5885 5884 5884
5889 5892 5894 5897 5899 5905 5904 5901 5896 5897 5895 5896 5894 5889 5891 5890 5889 5888 5886 5885 5883 5882 5881 5881 5881 5881 5881 5881 5881 5881 5882 5882 5883 5883 5883 5883 5883 5883 5883 5883 5882 5882 5881 5881 5880 5880 5879 5878 5877
5891 5893 5894 5896 5904 5903 5900 5899 5896 5895 5894 5894 5891 5887 5888 5888 5887 5886 5884 5883 5882 5880 5879 5879 5879 5879 5879 5879 5879 5879 5879 5879 5879 5879 5878 5878 5879 5879 5878 5877 5877 5877 5876 5875 5874 5873 5873 5872 5871
5892 5891 5893 5902 5905 5900 5898 5898 5897 5895 5894 5893 5888 5887 5887 5886 5885 5884 5883 5883 5881 5880 5878 5878 5877 5877 5877 5877 5877 5877 5877 5877 5876 5875 5875 5874 5874 5874 5873 5872 5872 5871 5870 5869 5868 5867 5866 5865 5864
5894 5892 5896 5907 5904 5901 5899 5898 5898 5897 5895 5894 5891 5884 5886 5885 5884 5884 5881 5880 5880 5879 5877 5876 5875 5875 5875 5875 5874 5874 5874 5873 5872 5871 5870 5870 5869 5869 5868 5867 5867 5865 5865 5863 5862 5861 5860 5859 5858
5892 5893 5898 5908 5905 5902 5899 5898 5897 5896 5893 5892 5891 5885 5885 5885 5884 5883 5881 5878 5876 5876 5874 5872 5872 5873 5872 5872 5871 5871 5870 5869 5868 5867 5866 5866 5865 5865 5864 5863 5862 5860 5859 5858 5857 5856 5855 5855 5854
5893 5896 5898 5906 5904 5901 5899 5898 5896 5895 5894 5892 5887 5884 5884 5884 5883 5882 5880 5879 5875 5873 5873 5871 5872 5872 5871 5870 5869 5868 5867 5865 5864 5863 5862 5860 5860 5859 5858 5858 5857 5855 5855 5854 5853 5852 5851 5850 5850
5893 5894 5900 5901 5901 5901 5899 5898 5896 5895 5894 5891 5885 5880 5880 5879 5881 5880 5878 5876 5872 5870 5870 5870 5869 5868 5868 5867 5866 5865 5864 5862 5861 5859 5858 5856 5855 5855 5854 5853 5851 5850 5849 5848 5846 5845 5844 5843 5843
5892 5895 5896 5898 5898 5898 5898 5897 5895 5895 5892 5890 5884 5879 5879 5877 5877 5877 5877 5872 5869 5867 5867 5868 5868 5866 5865 5864 5862 5861 5860 5858 5856 5854 5853 5852 5850 5849 5848 5847 5846 5844 5843 5842 5840 5839 5838 5837 5836
5890 5892 5892 5894 5893 5894 5896 5896 5894 5894 5891 5888 5883 5876 5876 5877 5876 5874 5873 5871 5868 5867 5866 5865 5866 5864 5862 5860 5858 5855 5854 5853 5851 5849 5848 5846 5845 5843 5842 5841 5840 5838 5837 5835 5834 5833 5832 5830 5829
5888 5889 5889 5889 5890 5890 5891 5893 5892 5892 5891 5887 5884 5879 5872 5874 5874 5872 5870 5868 5866 5865 5863 5862 5862 5860 5857 5855 5854 5852 5849 5847 5846 5844 5842 5840 5839 5837 5835 5833 5831 5830 5829 5828 5826 5824 5822 5821 5820
5885 5884 5887 5885 5885 5887 5887 5887 5889 5888 5888 5886 5882 5878 5873 5870 5869 5867 5866 5865 5863 5862 5860 5859 5857 5855 5853 5851 5850 5847 5844 5841 5839 5838 5836 5835 5833 5831 5829 5826 5824 5822 5820 5818 5817 5815 5812 5810 5808
5878 5879 5880 5880 5881 5882 5883 5883 5884 5887 5883 5883 5880 5877 5870 5868 5867 5865 5863 5861 5857 5856 5854 5853 5852 5851 5849 5848 5846 5843 5840 5836 5833 5831 5829 5828 5826 5824 5822 5820 5818 5816 5814 5811 5807 5804 5801 5798 5795
5873 5874 5875 5877 5878 5879 5880 5880 5881 5882 5881 5879 5877 5875 5869 5865 5864 5861 5859 5856 5851 5846 5844 5842 5845 5846 5844 5843 5841 5838 5835 5832 5828 5825 5823 5821 5819 5816 5814 5811 5809 5807 5804 5801 5797 5794 5790 5787 5783
5869 5871 5872 5875 5876 5877 5876 5875 5877 5875 5875 5875 5874 5873 5867 5862 5861 5857 5853 5849 5844 5838 5833 5829 5836 5839 5838 5837 5836 5833 5829 5826 5822 5818 5816 5814 5810 5807 5804 5802 5799 5797 5793 5789 5785 5780 5777 5774 5770
5865 5868 5870 5872 5875 5874 5873 5872 5872 5869 5870 5871 5870 5870 5864 5858 5857 5855 5851 5844 5840 5836 5829 5824 5827 5828 5829 5829 5828 5826 5823 5820 5815 5811 5808 5804 5799 5795 5793 5791 5789 5786 5783 5778 5773 5769 5765 5761 5757
5861 5864 5867 5872 5873 5870 5867 5867 5866 5863 5865 5865 5865 5863 5859 5854 5854 5853 5849 5844 5840 5835 5830 5824 5821 5820 5820 5820 5819 5817 5814 5810 5806 5802 5798 5792 5789 5786 5784 5781 5778 5774 5771 5766 5760 5756 5752 5748 5744
5857 5859 5861 5864 5865 5863 5861 5861 5859 5858 5859 5859 5858 5857 5855 5850 5849 5849 5847 5844 5839 5833 5826 5821 5818 5815 5813 5812 5809 5806 5803 5799 5795 5792 5787 5781 5777 5775 5773 5771 5767 5762 5759 5753 5747 5741 5736 5733 5729
5850 5852 5854 5857 5860 5857 5856 5855 5852 5851 5852 5852 5851 5849 5848 5845 5844 5845 5844 5842 5837 5832 5826 5821 5817 5813 5810 5806 5802 5798 5794 5789 5785 5781 5777 5772 5765 5762 5759 5755 5752 5748 5744 5739 5733 5726 5719 5715 5711
5844 5847 5848 5850 5852 5854 5851 5850 5846 5842 5843 5844 5844 5842 5840 5840 5839 5838 5837 5835 5832 5828 5824 5820 5815 5810 5805 5801 5796 5791 5786 5780 5776 5772 5768 5763 5756 5749 5744 5738 5732 5728 5724 5719 5713 5707 5700 5693 5689
5838 5841 5843 5845 5845 5846 5848 5847 5843 5835 5834 5836 5835 5833 5833 5833 5832 5830 5829 5826 5824 5822 5818 5814 5809 5804 5798 5793 5788 5783 5777 5772 5768 5763 5757 5751 5744 5736 5728 5720 5714 5709 5703 5697 5691 5685 5680 5673 5667
5832 5835 5836 5837 5838 5838 5840 5842 5839 5827 5826 5829 5829 5828 5827 5826 5824 5823 5821 5819 5816 5813 5810 5805 5800 5796 5791 5786 5780 5774 5769 5763 5758 5752 5746 5739 5731 5723 5714 5705 5698 5691 5683 5675 5667 5661 5656 5650 5645
5827 5829 5830 5830 5831 5832 5835 5836 5835 5821 5821 5824 5824 5823 5821 5819 5817 5815 5813 5811 5809 5805 5801 5797 5792 5788 5783 5777 5772 5765 5759 5753 5746 5739 5733 5725 5716 5708 5699 5690 5682 5673 5663 5653 5645 5639 5634 5629 5626
5820 5822 5824 5826 5828 5829 5830 5827 5820 5817 5817 5818 5819 5818 5816 5813 5811 5808 5806 5803 5801 5797 5793 5788 5784 5779 5773 5767 5761 5755 5749 5742 5734 5725 5716 5706 5697 5688 5679 5670 5662 5653 5644 5635 5627 5621 5617 5614 5612
5814 5814 5818 5820 5821 5823 5821 5814 5813 5813 5813 5814 5813 5812 5810 5808 5805 5802 5799 5796 5792 5788 5784 5779 5774 5768 5762 5756 5750 5743 5736 5728 5719 5708 5697 5685 5675 5666 5659 5652 5645 5638 5630 5623 5617 5612 5608 5604 5601
5807 5810 5814 5813 5814 5815 5818 5813 5805 5807 5808 5808 5806 5804 5803 5801 5798 5795 5792 5788 5784 5779 5775 5770 5764 5758 5752 5745 5739 5731 5723 5713 5703 5691 5679 5667 5657 5649 5644 5638 5633 5627 5621 5615 5609 5604 5600 5596 5592
5801 5802 5804 5806 5808 5809 5809 5810 5799 5801 5801 5800 5797 5795 5795 5793 5791 5788 5784 5780 5776 5771 5765 5759 5753 5747 5740 5733 5726 5718 5709 5699 5688 5679 5668 5658 5649 5641 5635 5629 5624 5618 5613 5608 5602 5597 5593 5589 5585
5793 5795 5797 5798 5799 5800 5802 5799 5793 5794 5794 5792 5788 5787 5787 5785 5782 5779 5776 5771 5766 5760 5754 5748 5742 5735 5728 5721 5713 5705 5695 5686 5678 5670 5661 5652 5644 5636 5630 5623 5617 5611 5606 5600 5595 5591 5586 5582 5578